This demonstration page uses our WeatherBlox Daily Observations layout. Learn more.

Left ArrowRight Arrow

31.84235, -102.49876

Hourly Observations for March 9, 2015

Temp ( °F °C ) Dew Point ( °F °C ) Humidity (%) Winds ( mph kmh ) Pressure ( in mb ) Visibility ( mi km ) Precip ( " mm )
12:53 am 00:53 Clear 54 12.2 45 7.2 72 72 SE 5 7 29.90 1012 10 16 0.00 0.00
1:53 am 01:53 Clear 52 11.1 46 7.8 80 80 E 6 9 29.89 1012 10 16 0.00 0.00
2:53 am 02:53 Cloudy with Light Rain 51 10.6 46 7.8 83 83 E 5 7 29.89 1012 10 16 0.00 0.03
3:53 am 03:53 Mostly Cloudy 49 9.4 45 7.2 86 86 E 7 11 29.87 1012 8 13 0.00 0.03
4:53 am 04:53 Cloudy with Mist and Fog 49 9.4 45 7.2 86 86 NNE 6 9 29.87 1012 5 8 0.00 0.00
5:53 am 05:53 Cloudy with Mist and Fog 48 8.9 46 7.8 93 93 NE 3 6 29.87 1012 5 8 0.00 0.00
6:39 am 06:39 Cloudy with Light Rain 49 9.4 47 8.3 93 93 ENE 6 9 29.94 1014 3 4 0.00 0.03
6:53 am 06:53 Cloudy with Mist and Fog 48 8.9 46 7.8 93 93 NE 7 11 29.88 1012 2 3 0.00 0.03
7:44 am 07:44 Cloudy with Mist and Fog 49 9.4 47 8.3 93 93 ENE 7 11 29.97 1015 3 4 0.00 0.00
7:53 am 07:53 Cloudy with Mist and Fog 49 9.4 47 8.3 93 93 E 8 13 29.88 1012 3 5 0.00 0.00
8:06 am 08:06 Cloudy with Mist and Fog 50 10 47 8.3 89 89 ENE 6 9 29.97 1015 3 5 0.00 0.00
8:15 am 08:15 Cloudy with Mist and Fog 50 10 47 8.3 89 89 ENE 5 7 29.97 1015 3 5 0.00 0.00
8:25 am 08:25 Cloudy with Mist and Fog 50 10 48 8.9 93 93 NE 5 7 29.97 1015 3 4 0.00 0.00
8:49 am 08:49 Cloudy with Mist and Fog 50 10 46 8 88 88 NNE 7 11 29.97 1015 2 2 0.00 0.00
8:53 am 08:53 Cloudy with Mist and Fog 50 10 47 8.3 89 89 NNE 6 9 29.91 1013 2 2 0.00 0.00
9:14 am 09:14 Cloudy with Mist and Fog 50 10 47 8.3 89 89 N 7 11 29.97 1015 2 3 0.00 0.00
9:31 am 09:31 Cloudy with Mist and Fog 50 10 48 8.9 93 93 NNE 6 9 30.00 1016 2 3 0.00 0.00
9:53 am 09:53 Cloudy with Mist and Fog 50 10 48 8.9 93 93 NNE 6 9 29.93 1014 2 3 0.00 0.00
10:07 am 10:07 Cloudy with Fog 50 10 48 8.9 93 93 N 6 9 30.00 1016 1 1 0.00 0.00
10:27 am 10:27 Cloudy with Mist and Fog 50 10 48 8.9 93 93 N 7 11 30.00 1016 2 3 0.00 0.00
10:53 am 10:53 Cloudy with Mist and Fog 51 10.6 48 8.9 89 89 NNE 8 13 29.95 1014 2 2 0.00 0.00
11:09 am 11:09 Cloudy with Mist and Fog 51 10.6 48 8.9 89 89 NE 9 15 29.97 1015 3 5 0.00 0.00
11:53 am 11:53 Cloudy with Mist and Fog 51 10.6 48 8.9 89 89 NE 10 17 29.95 1014 4 6 0.00 0.00
12:21 pm 12:21 Cloudy with Light Rain 52 11.1 48 8.9 86 86 NNE 12 19 30.00 1016 8 13 0.00 0.03
12:53 pm 12:53 Cloudy 52 11.1 48 8.9 86 86 NNE 13 20 29.95 1014 9 14 0.00 0.03
2:43 pm 14:43 Cloudy 55 12.8 47 8.3 74 74 ENE 14 22 29.94 1014 10 16 0.00 0.00
2:53 pm 14:53 Cloudy 55 12.8 47 8.3 74 74 NE 13 20 29.91 1013 10 16 0.00 0.00
3:53 pm 15:53 Cloudy 55 12.8 46 7.8 72 72 NE 10 17 29.89 1012 10 16 0.00 0.00
4:53 pm 16:53 Cloudy 56 13.3 46 7.8 70 70 ENE 10 17 29.88 1012 10 16 0.00 0.00
5:16 pm 17:16 Partly Cloudy 57 13.9 46 7.8 67 67 ENE 13 20 29.88 1012 10 16 0.00 0.00
5:40 pm 17:40 Mostly Cloudy 56 13.3 45 7.2 67 67 ENE 10 17 29.88 1012 10 16 0.00 0.00
5:53 pm 17:53 Mostly Cloudy 56 13.3 45 7.2 67 67 ENE 13 20 29.88 1012 10 16 0.00 0.00
6:23 pm 18:23 Mostly Sunny 56 13.3 45 7.2 67 67 E 7 11 29.88 1012 10 16 0.00 0.00
6:53 pm 18:53 Mostly Sunny 55 12.8 45 7.2 69 69 E 9 15 29.88 1012 10 16 0.00 0.00
7:53 pm 19:53 Sunny 50 10 43 6.1 77 77 E 5 7 29.91 1013 10 16 0.00 0.00
8:53 pm 20:53 Clear 47 8.3 42 5.6 83 83 ESE 7 11 29.93 1014 10 16 0.00 0.00
9:53 pm 21:53 Clear 47 8.3 42 5.6 83 83 ESE 7 11 29.96 1015 10 16 0.00 0.00
10:53 pm 22:53 Clear 45 7.2 42 5.6 90 90 ESE 6 9 29.98 1015 10 16 0.00 0.00
11:53 pm 23:53 Clear 45 7.2 42 5.6 90 90 SSE 7 11 29.98 1015 7 11 0.00 0.00

Powered by AerisWeather